Tracking 18852 objects as of 24-Nov-2017
HD Live streaming from Space Station
objects crossing your sky now

FENGYUN 1C DEB

Track FENGYUN 1C DEB now!
10-day predictions


NORAD ID: 38726
Int'l Code: 1999-025ETT
Perigee: 757.3 km
Apogee: 884.9 km
Inclination: 99.2 °
Period: 101.2 minutes
Semi major axis: 7192 km
RCS: 0.003 m2 (small)
Launch date: May 10, 1999
Source: People's Republic of China (PRC)
Launch site: Taiyaun Space Center, China (TSC)

Note: This is SATELLITE DEBRIS
aabbcc
Your satellite tracking list
Your tracking list is empty




NASA's NSSDC Master Catalog

Two Line Element Set (TLE):
1 38726U 99025ETT 17327.62518041 +.00001325 +00000-0 +58079-3 0  9991
2 38726 099.1888 122.4320 0088693 074.3027 286.7913 14.23384983276480
Source of the keplerian elements: AFSPC